Regional Weather Roundup
Issued by NWS Charleston, SC

Current Version | Previous Version | Graphics & Text | Print | Product List | Glossary On
Versions: 1 2 3 4 5 6 7 8 9 10 11 12 13 14 15 16 17 18 19 20 21 22 23 24 25 26 27 28 29 30 31 32 33 34 35 36 37 38 39 40 41 42 43 44 45 46 47 48 49 50
000
ASUS42 KCHS 201410
RWRCHS
REGIONAL WEATHER ROUNDUP
NATIONAL WEATHER SERVICE CHARLESTON SC
1000 AM EDT SUN APR 20 2014

NOTE: "FAIR" INDICATES FEW OR NO CLOUDS BELOW 12,000 FEET WITH NO
SIGNIFICANT WEATHER AND/OR OBSTRUCTIONS TO VISIBILITY.

NOT ALL STATIONS ARE QUALITY CONTROLLED BY THE NATIONAL
WEATHER SERVICE. USE DATA WITH CAUTION...ESPECIALLY
DEWPOINT OBSERVATIONS.

SCZ027-030-031-034>040-042>050-201500-
...SOUTH CAROLINA...

CITY           SKY/WX    TMP DP  RH WIND       PRES   REMARKS
N CHARLESTON   CLOUDY    57  52  83 N14       30.09R
WATERFRONT PRK   N/A     55 N/A N/A N18         N/A
FORT JOHNSON   NOT AVBL
MOUNT PLEASANT PTSUNNY  N/A N/A N/A N8G22     30.06R
JOHNS ISLAND   CLOUDY    57  55  94 N15       30.08R
PINOPOLIS        N/A     55  50  82 NE15G24   30.02R
MONCKS CORNER  PTSUNNY   55  54  94 N13       30.10S
SUMMERVILLE    NOT AVBL
BEAUFORT MCAS  CLOUDY    55  51  86 NE12      30.12R
BEAUFORT ARPT  CLOUDY    54  54 100 N9        30.11R
HILTON HEAD IS CLOUDY    55  52  88 N12       30.11R
GEORGETOWN     NOT AVBL
WALTERBORO     CLOUDY    54  54 100 N9G16     30.13R
ORANGEBURG     CLOUDY    54  43  66 NE16G23   30.16R
BARNWELL       CLOUDY    54  46  76 NE13G22   30.18R
AIKEN          CLOUDY    55  48  76 N13G18    30.22S
MANNING        CLOUDY    54  46  76 N10       30.13S
KINGSTREE      NOT AVBL
COLUMBIA       CLOUDY    58  42  55 N12       30.19R
SUMTER         CLOUDY    56  42  58 N16       30.15S
FLORENCE       CLOUDY    55  42  61 NE13      30.15R
MYRTLE BEACH   NOT AVBL
N MYRTLE BEACH CLOUDY    54  47  77 N14G24    30.07S

$$

GAZ063-065-086>088-099>101-113>116-118-119-134-136>141-150-201500-
...GEORGIA...

CITY           SKY/WX    TMP DP  RH WIND       PRES   REMARKS
SAVANNAH ARPT  LGT RAIN  56  52  86 N17G28    30.11R FOG
HUNTER AAF     CLOUDY    54  52  92 N10G20    30.09R
FORT STEWART   CLOUDY    54  54 100 N8        30.11R
STATESBORO     NOT AVBL
SYLVANIA       CLOUDY    54  52  92 NE15      30.16R FOG
CLAXTON        CLOUDY    55  55 100 NE8       30.14R
THOMSON        CLOUDY    56  48  75 NE12      30.26R
AUGUSTA-BUSH   CLOUDY    56  47  71 N10       30.20R
AUGUSTA-DANIEL CLOUDY    56  46  69 N10       30.21R
SWAINSBORO     CLOUDY    52  52 100 NE10G17   30.18R
VIDALIA        CLOUDY    54  50  87 NE10      30.15S
ALMA           CLOUDY    53  50  89 N7        30.14R
WAYCROSS       NOT AVBL
JESUP          CLOUDY    52  52 100 N9        30.13R
BRUNSWICK      CLOUDY    54  54 100 N6        30.12R
SAINT SIMONS   LGT RAIN  54  52  93 N13       30.11R

$$

SCZ027-028-034-036>038-045-046-048>050-GAZ119-141-201500-
...LAKE AND SUPPLEMENTAL COASTAL OBSERVATIONS...

STATION/POSITION TIME  TEMP    WIND        PRES    WAVE   SWELL
                       AIR SEA DIR/SP/G            HT/PER HT/PER/DIR
                 (UTC) (F)     (DEG/KT/KT) (MB)    (FT/S) (FT/S/D)
UPR LAKE MARION  NOT AVBL
WINYAH BAY       1300   53      10/  9     1018.0S
LAKE MURRAY      1300   54      10/  3/ 12 1022.0R
ACE BASIN NERRS  1300   54      10/  4     1018.0S
FORT PULASKI     1400   54 58  360/ 12/ 15 1019.5R
SAPELO ISLAND    1300   54     350/ 12     1018.0S

$$

ANZ835-935-AMZ111-154-330-350-352-354-374-450-454-472-201500-
...C-MAN AND BUOY OBSERVATIONS...

STATION/POSITION TIME  TEMP    WIND        PRES    WAVE   SWELL
                       AIR SEA DIR/SP/G            HT/PER HT/PER/DIR
                 (UTC) (F)     (DEG/KT/KT) (MB)    (FT/S) (FT/S/D)
FOLLY BEACH CMAN 1300   55     360/ 15/ 18 1018.1F
BUOY 41004       NOT AVBL
BUOY 41008       1400   58 63   20/ 19/ 21 1018.0R   6/ 6   2/ 80/11
5E ST. MARYS GA  1400      63                N/A     5/ 5   2/ 80/11
FRYING PAN BUOY  1400   59 69   30/ 29/ 37 1014.7R  10/ 8   3/100/10
BUOY 41025       1400   69 76   60/ 31/ 39 1015.1R
CAPE LOOKOUT NC  1300   56      10/ 22/ 26 1016.6F
BUOY 41002       NOT AVBL
BUOY 41010       1400   72 76  280/ 10/ 12 1014.0S   6/ 9   5/ 80/ 9
BUOY 41012       NOT AVBL
ST AUGUSTINE FL  1400   56     310/ 11/ 13 1019.6R
CAPERS NEARSHORE NOT AVBL
FRIPP NEARSHORE  1300   56      20/ 16/ 17   N/A


$$


USA.gov is the U.S. government's official web portal to all federal, state and local government web resources and services.